Flag for Germany Weather past 2 weeks in Kassel, Hesse, Germany

Now
36 °F

Passing clouds.


Feels Like: 33 °F
Forecast: 32 / 60 °F
Wind: 3 mph from Northwest

Location: Fritzlar Airport

Current Time: Apr 19, 2015 at 2:20:06 AM

Latest Report: Apr 19, 2015 at 1:20 AM


Visibility: N/A

Pressure: 30.24 "Hg

Humidity: 81%

Dew point: 30 °F

Location of KasselLocation

Historic Weather in Kassel — Graph

°F

Kassel temperature yesterday

Maximum temperature yesterday: 54 °F (at 4:20 PM)
Minimum temperature yesterday: 37 °F (at 7:20 AM)
Average temperature yesterday: 46 °F

Past Weeks' High & Low Weather Summary

 TemperatureHumidityPressure
High75 °F (Apr 15, 3:20 PM)100% (Apr 9, 6:50 AM)30.63 "Hg (Apr 9, 6:50 AM)
Low27 °F (Apr 7, 6:20 AM)27% (Apr 15, 2:20 PM)29.92 "Hg (Apr 15, 6:20 PM)
Average47 °F66%30.24 "Hg
* Reported Apr 4 12:20 AM — Apr 19 12:20 AM, Kassel, Weather by CustomWeather, © 2015

Note: Actual official high and low records may vary slightly from our data, if they occured in-between our weather recording intervals... More about our weather records

Advertising

Kassel weather history for previous 24 hours

 ConditionsComfort  
Time TempWeatherWind HumidityBarometerVisibility
12:20 AM
Sun, Apr 19
37 °FPassing clouds.3 mph75%30.24 "HgN/A
11:20 PM
Sat, Apr 18
39 °FPassing clouds.5 mph70%30.27 "HgN/A
10:20 PM45 °FPassing clouds.5 mph57%30.24 "HgN/A
9:20 PM45 °FPassing clouds.5 mph57%30.24 "HgN/A
8:20 PM50 °FPassing clouds.5 mph43%30.24 "HgN/A
7:20 PM52 °FPassing clouds.7 mph38%30.24 "HgN/A
6:20 PM54 °FPassing clouds.8 mph35%30.24 "HgN/A
5:20 PM54 °FPassing clouds.6 mph38%30.24 "HgN/A
4:20 PM54 °FPassing clouds.5 mph38%30.27 "HgN/A
3:20 PM52 °FPassing clouds.6 mph41%30.27 "HgN/A
2:20 PM52 °FScattered clouds.6 mph44%30.30 "HgN/A
1:20 PM50 °FScattered clouds.7 mph43%30.30 "HgN/A
12:20 PM50 °FScattered clouds.8 mph47%30.30 "HgN/A
11:20 AM48 °FScattered clouds.8 mph54%30.30 "HgN/A
10:20 AM46 °FPassing clouds.9 mph57%30.30 "HgN/A
9:20 AM45 °FScattered clouds.5 mph71%30.30 "HgN/A
8:20 AM43 °FPassing clouds.6 mph71%30.27 "HgN/A
7:20 AM37 °FPassing clouds.5 mph87%30.27 "HgN/A
6:20 AM39 °FPassing clouds.5 mph81%30.24 "HgN/A
5:20 AM39 °FChilly.5 mph81%30.21 "HgN/A
4:20 AM41 °FQuite cool.6 mph70%30.21 "HgN/A
3:20 AM41 °FQuite cool.7 mph70%30.21 "HgN/A
2:20 AM41 °FQuite cool.6 mph70%30.18 "HgN/A
Weather by CustomWeather, © 2015

See weather overviewHow to use our weather pages